Telluride, CO

1:59 PM MDT on June 23, 2017 (GMT -0600)
Telluride Regional

Weather History for KTEX - April, 2014

Change the Weather History Date:

Sunday, April 27, 2014

  Actual Average Record
Temperature  
Mean Temperature 29 °F -  
Max Temperature 32 °F 49 °F 62 °F (2007)
Min Temperature 26 °F 28 °F 17 °F (2011)
Degree Days  
Heating Degree Days 36    
Moisture  
Dew Point 24 °F    
Average Humidity 86    
Maximum Humidity 100    
Minimum Humidity 64    
Precipitation  
Precipitation 0.00 in - - ()
Sea Level Pressure  
Sea Level Pressure 29.72 in    
Wind  
Wind Speed 7 mph (West)    
Max Wind Speed 23 mph    
Max Gust Speed 30 mph    
Visibility 4 miles    
Events Snow    
Averages and records for this station are not official NWS values.
T = Trace of Precipitation, MM = Missing Value Source: NWS Daily Summary

Daily Weather History Graph

Daily Weather History Graph

Search for Another Location

Airport or City:

Trip Planner

Search our weather history database for the weather conditions in past years. The results will help you decide how hot, cold, wet, or windy it might be!

Date:

Astronomy

Apr. 27, 2014 Rise Set
Actual Time 6:20 AM MDT 7:58 PM MDT
Civil Twilight 5:52 AM MDT 8:26 PM MDT
Nautical Twilight 5:18 AM MDT 9:00 PM MDT
Astronomical Twilight 4:42 AM MDT 9:36 PM MDT
Moon 5:20 AM MDT (4/27) 6:37 PM MDT (4/27)
Length of Visible Light 14h 34m
Length of Day
13h 38m
Waning Crescent, 3% of the Moon is Illuminated
Apr 27
Waning Crescent
Apr 29
New
May 6
First Quarter
May 14
Full
May 21
Last Quarter

Hourly Weather History & Observations

Time (MDT) Temp. Windchill Dew Point Humidity Pressure Visibility Wind Dir Wind Speed Gust Speed Precip Events Conditions
12:17 AM 26.6 °F - 26.6 °F 100% 29.67 in 1.2 mi Calm Calm - N/A Snow Light Snow
12:37 AM 26.6 °F - 26.6 °F 100% 29.67 in 1.2 mi Calm Calm - N/A Snow Light Snow
12:57 AM 26.6 °F - 26.6 °F 100% 29.66 in 1.2 mi Calm Calm - N/A Snow Light Snow
1:17 AM 26.6 °F - 26.6 °F 100% 29.66 in 1.2 mi Calm Calm - N/A Snow Light Snow
1:39 AM 26.6 °F - 26.6 °F 100% 29.66 in 1.5 mi Calm Calm - N/A Snow Light Snow
1:57 AM 26.6 °F - 26.6 °F 100% 29.66 in 2.0 mi Calm Calm - N/A Snow Light Snow
2:17 AM 26.6 °F - 26.6 °F 100% 29.66 in 0.8 mi Calm Calm - N/A Snow Snow
2:37 AM 26.6 °F - 26.6 °F 100% 29.66 in 5.0 mi Calm Calm - N/A Snow Light Snow
3:17 AM 26.6 °F 18.2 °F 26.6 °F 100% 29.66 in 3.0 mi West 8.1 mph - N/A Snow Light Snow
3:37 AM 26.6 °F 15.7 °F 26.6 °F 100% 29.67 in 3.0 mi West 12.7 mph 25.3 mph N/A Snow Light Snow
4:17 AM 28.4 °F 14.4 °F 26.6 °F 93% 29.69 in 2.5 mi West 23.0 mph 28.8 mph N/A Snow Light Snow
4:57 AM 26.6 °F 13.4 °F 26.6 °F 100% 29.69 in 3.0 mi West 18.4 mph 27.6 mph N/A Snow Light Snow
5:17 AM 26.6 °F 13.1 °F 24.8 °F 93% 29.70 in 4.0 mi West 19.6 mph 28.8 mph N/A Snow Light Snow
5:57 AM 26.6 °F 16.2 °F 24.8 °F 93% 29.70 in 10.0 mi West 11.5 mph 29.9 mph N/A   Overcast
6:17 AM 26.6 °F 16.8 °F 24.8 °F 93% 29.70 in 10.0 mi West 10.4 mph 16.1 mph N/A   Overcast
6:57 AM 26.6 °F 17.5 °F 24.8 °F 93% 29.70 in 10.0 mi WNW 9.2 mph 20.7 mph N/A Snow Light Snow
7:17 AM 26.6 °F 19.1 °F 21.2 °F 80% 29.71 in 10.0 mi WNW 6.9 mph 21.9 mph N/A   Overcast
7:39 AM 26.6 °F 18.2 °F 23.0 °F 86% 29.71 in 10.0 mi West 8.1 mph - N/A Snow Light Snow
7:57 AM 26.6 °F - 24.8 °F 93% 29.71 in 10.0 mi Calm Calm - N/A Snow Light Snow
8:17 AM 28.4 °F 19.1 °F 23.0 °F 80% 29.71 in 7.0 mi WNW 10.4 mph 19.6 mph N/A   Overcast
8:57 AM 26.6 °F 15.7 °F 26.6 °F 100% 29.71 in 0.2 mi West 12.7 mph 20.7 mph N/A Snow Snow
9:17 AM 26.6 °F 14.7 °F 23.0 °F 86% 29.72 in 0.8 mi West 15.0 mph 20.7 mph N/A Snow Light Snow
9:37 AM 26.6 °F 15.7 °F 21.2 °F 80% 29.73 in 1.2 mi WNW 12.7 mph 25.3 mph N/A Snow Light Snow
9:57 AM 28.4 °F 20.4 °F 23.0 °F 80% 29.73 in 7.0 mi West 8.1 mph 20.7 mph N/A   Overcast
10:17 AM 26.6 °F 14.3 °F 23.0 °F 86% 29.74 in 1.0 mi West 16.1 mph 24.2 mph N/A Snow Light Snow
10:37 AM 26.6 °F 14.7 °F 24.8 °F 93% 29.74 in 1.2 mi West 15.0 mph - N/A Snow Light Snow
10:57 AM 28.4 °F 24.6 °F 21.2 °F 74% 29.74 in 4.0 mi NW 3.5 mph - N/A Snow Light Snow
11:37 AM 28.4 °F 19.1 °F 21.2 °F 74% 29.75 in 7.0 mi WSW 10.4 mph - N/A   Overcast
11:57 AM 26.6 °F 15.2 °F 23.0 °F 86% 29.76 in 0.5 mi West 13.8 mph 21.9 mph N/A Snow Light Snow
12:18 PM 28.4 °F 18.0 °F 21.2 °F 74% 29.76 in 4.0 mi West 12.7 mph 21.9 mph N/A Snow Light Snow
12:37 PM 30.2 °F 20.2 °F 19.4 °F 64% 29.77 in 7.0 mi West 12.7 mph 19.6 mph N/A Snow Light Snow
12:57 PM 28.4 °F 16.6 °F 21.2 °F 74% 29.77 in 1.2 mi West 16.1 mph 23.0 mph N/A Snow Light Snow
1:17 PM 28.4 °F 18.5 °F 23.0 °F 80% 29.77 in 0.5 mi West 11.5 mph 21.9 mph N/A Snow Light Snow
1:37 PM 26.6 °F 15.2 °F 23.0 °F 86% 29.78 in 0.2 mi WNW 13.8 mph 23.0 mph N/A Snow Snow
2:37 PM 30.2 °F 20.8 °F 21.2 °F 69% 29.79 in 3.0 mi West 11.5 mph 20.7 mph N/A Snow Light Snow
2:57 PM 30.2 °F 21.9 °F 21.2 °F 69% 29.79 in 4.0 mi West 9.2 mph 27.6 mph N/A Snow Light Snow
3:17 PM 30.2 °F 24.3 °F 21.2 °F 69% 29.79 in 10.0 mi West 5.8 mph - N/A   Overcast
3:37 PM 30.2 °F 20.2 °F 21.2 °F 69% 29.80 in 2.5 mi West 12.7 mph 23.0 mph N/A Snow Light Snow
3:59 PM 32.0 °F 24.2 °F 21.2 °F 64% 29.79 in 10.0 mi West 9.2 mph 17.3 mph N/A   Scattered Clouds
4:17 PM 30.2 °F 21.9 °F 23.0 °F 75% 29.80 in 4.0 mi West 9.2 mph 16.1 mph N/A Snow Light Snow